"Datum/tijd (MEZT)";"model verwachting Scaldis-Oost";"model verwachting Scaldis-Oost"
2024-05-05 13:00;82;109
2024-05-05 13:10;76;108
2024-05-05 13:20;70;108
2024-05-05 13:30;63;108
2024-05-05 13:40;56;108
2024-05-05 13:50;48;107
2024-05-05 14:00;39;106
2024-05-05 14:10;32;104
2024-05-05 14:20;24;102
2024-05-05 14:30;15;95
2024-05-05 14:40;6;67
2024-05-05 14:50;6;337
2024-05-05 15:00;13;311
2024-05-05 15:10;19;301
2024-05-05 15:20;26;289
2024-05-05 15:30;33;283
2024-05-05 15:40;40;286
2024-05-05 15:50;44;289
2024-05-05 16:00;47;288
2024-05-05 16:10;49;287
2024-05-05 16:20;50;288
2024-05-05 16:30;51;287
2024-05-05 16:40;52;287
2024-05-05 16:50;52;288
2024-05-05 17:00;52;287
2024-05-05 17:10;50;287
2024-05-05 17:20;48;286
2024-05-05 17:30;47;285
2024-05-05 17:40;46;285
2024-05-05 17:50;45;285
2024-05-05 18:00;44;285
2024-05-05 18:10;44;286
2024-05-05 18:20;44;286
2024-05-05 18:30;43;287
2024-05-05 18:40;43;287
2024-05-05 18:50;42;287
2024-05-05 19:00;40;287
2024-05-05 19:10;37;286
2024-05-05 19:20;34;286
2024-05-05 19:30;31;286
2024-05-05 19:40;26;286
2024-05-05 19:50;21;285
2024-05-05 20:00;16;284
2024-05-05 20:10;9;281
2024-05-05 20:20;2;256
2024-05-05 20:30;5;124
2024-05-05 20:40;11;115
2024-05-05 20:50;17;112
2024-05-05 21:00;22;111
2024-05-05 21:10;26;110
2024-05-05 21:20;30;109
2024-05-05 21:30;33;109
2024-05-05 21:40;34;109
2024-05-05 21:50;35;109
2024-05-05 22:00;35;109
2024-05-05 22:10;34;109
2024-05-05 22:20;34;109
2024-05-05 22:30;33;108
2024-05-05 22:40;33;108
2024-05-05 22:50;33;108
2024-05-05 23:00;33;108
2024-05-05 23:10;32;108
2024-05-05 23:20;33;108
2024-05-05 23:30;33;108
2024-05-05 23:40;34;108
2024-05-05 23:50;37;108
2024-05-06 00:00;38;107
2024-05-06 00:10;43;107
2024-05-06 00:20;49;108
2024-05-06 00:30;55;108
2024-05-06 00:40;62;108
2024-05-06 00:50;69;108
2024-05-06 01:00;75;109
2024-05-06 01:10;77;109
2024-05-06 01:20;77;109
2024-05-06 01:30;75;108
2024-05-06 01:40;70;108
2024-05-06 01:50;62;108
2024-05-06 02:00;53;108
2024-05-06 02:10;42;107
2024-05-06 02:20;33;106
2024-05-06 02:30;24;104
2024-05-06 02:40;16;100
2024-05-06 02:50;9;90
2024-05-06 03:00;3;35
2024-05-06 03:10;7;317
2024-05-06 03:20;15;302
2024-05-06 03:30;23;294
2024-05-06 03:40;31;288
2024-05-06 03:50;38;286
2024-05-06 04:00;44;288
2024-05-06 04:10;47;289
2024-05-06 04:20;49;288
2024-05-06 04:30;51;287
2024-05-06 04:40;52;287
2024-05-06 04:50;52;287
2024-05-06 05:00;52;288
2024-05-06 05:10;51;288
2024-05-06 05:20;49;287
2024-05-06 05:30;48;286
2024-05-06 05:40;47;286
2024-05-06 05:50;48;286
2024-05-06 06:00;46;286
2024-05-06 06:10;46;286
2024-05-06 06:20;46;286
2024-05-06 06:30;45;286
2024-05-06 06:40;45;287
2024-05-06 06:50;44;287
2024-05-06 07:00;43;287
2024-05-06 07:10;42;287
2024-05-06 07:20;41;287
2024-05-06 07:30;38;287
2024-05-06 07:40;36;287
2024-05-06 07:50;33;286
2024-05-06 08:00;28;286
2024-05-06 08:10;23;286
2024-05-06 08:20;17;284
2024-05-06 08:30;11;282
2024-05-06 08:40;4;272
2024-05-06 08:50;3;136
2024-05-06 09:00;9;116
2024-05-06 09:10;16;112
2024-05-06 09:20;21;111
2024-05-06 09:30;25;110
2024-05-06 09:40;29;109
2024-05-06 09:50;31;109
2024-05-06 10:00;33;108
2024-05-06 10:10;34;109
2024-05-06 10:20;35;109
2024-05-06 10:30;35;109
2024-05-06 10:40;34;109
2024-05-06 10:50;34;108
2024-05-06 11:00;35;108
2024-05-06 11:10;36;108
2024-05-06 11:20;36;108
2024-05-06 11:30;36;108
2024-05-06 11:40;37;108
2024-05-06 11:50;39;108
2024-05-06 12:00;41;108
2024-05-06 12:10;44;108
2024-05-06 12:20;49;107
2024-05-06 12:30;55;108
2024-05-06 12:40;62;108
2024-05-06 12:50;70;108
2024-05-06 13:00;78;108
2024-05-06 13:10;84;109
2024-05-06 13:20;90;109
2024-05-06 13:30;94;108
2024-05-06 13:40;94;109
2024-05-06 13:50;91;109
2024-05-06 14:00;86;108
2024-05-06 14:10;79;108
2024-05-06 14:20;70;108
2024-05-06 14:30;62;108
2024-05-06 14:40;53;107
2024-05-06 14:50;44;106
2024-05-06 15:00;35;104
2024-05-06 15:10;27;102
2024-05-06 15:20;19;97
2024-05-06 15:30;11;86
2024-05-06 15:40;5;42
2024-05-06 15:50;9;327
2024-05-06 16:00;16;309
2024-05-06 16:10;23;295
2024-05-06 16:20;31;282
2024-05-06 16:30;39;283
2024-05-06 16:40;45;289
2024-05-06 16:50;49;288
2024-05-06 17:00;50;287
2024-05-06 17:10;52;287
2024-05-06 17:20;54;288
2024-05-06 17:30;55;287
2024-05-06 17:40;57;288
2024-05-06 17:50;57;288
2024-05-06 18:00;55;287
2024-05-06 18:10;52;286
2024-05-06 18:20;50;285
2024-05-06 18:30;48;285
2024-05-06 18:40;47;285
2024-05-06 18:50;46;286
2024-05-06 19:00;45;286
2024-05-06 19:10;45;287
2024-05-06 19:20;44;287
2024-05-06 19:30;43;287
2024-05-06 19:40;41;287
2024-05-06 19:50;40;286
2024-05-06 20:00;37;286
2024-05-06 20:10;34;286
2024-05-06 20:20;31;286
2024-05-06 20:30;27;286
2024-05-06 20:40;21;285
2024-05-06 20:50;15;284
2024-05-06 21:00;9;280
2024-05-06 21:10;2;244
2024-05-06 21:20;5;123
2024-05-06 21:30;11;115
2024-05-06 21:40;17;112
2024-05-06 21:50;21;111
2024-05-06 22:00;25;110
2024-05-06 22:10;29;109
2024-05-06 22:20;33;109
2024-05-06 22:30;35;109
2024-05-06 22:40;37;109
2024-05-06 22:50;37;109
2024-05-06 23:00;37;109
2024-05-06 23:10;36;109
2024-05-06 23:20;36;108
2024-05-06 23:30;35;108
2024-05-06 23:40;33;108
2024-05-06 23:50;33;108
2024-05-07 00:00;32;108
2024-05-07 00:10;32;108
2024-05-07 00:20;32;108
2024-05-07 00:30;32;107
2024-05-07 00:40;33;107
2024-05-07 00:50;36;107
2024-05-07 01:00;41;107
2024-05-07 01:10;47;107
2024-05-07 01:20;55;108
2024-05-07 01:30;64;108
2024-05-07 01:40;72;109
2024-05-07 01:50;78;109
2024-05-07 02:00;81;109
2024-05-07 02:10;83;109
2024-05-07 02:20;81;108
2024-05-07 02:30;76;109
2024-05-07 02:40;68;108
2024-05-07 02:50;59;108
2024-05-07 03:00;49;107
2024-05-07 03:10;39;106
2024-05-07 03:20;29;104
2024-05-07 03:30;21;101
2024-05-07 03:40;12;94
2024-05-07 03:50;5;68
2024-05-07 04:00;6;333
2024-05-07 04:10;13;306
2024-05-07 04:20;22;297
2024-05-07 04:30;30;288
2024-05-07 04:40;38;285
2024-05-07 04:50;45;288
2024-05-07 05:00;49;289
2024-05-07 05:10;50;288
2024-05-07 05:20;53;287
2024-05-07 05:30;54;288
2024-05-07 05:40;55;287
2024-05-07 05:50;55;288
2024-05-07 06:00;53;287
2024-05-07 06:10;51;286
2024-05-07 06:20;49;286
2024-05-07 06:30;49;286
2024-05-07 06:40;48;286
2024-05-07 06:50;48;286
2024-05-07 07:00;48;286
2024-05-07 07:10;48;286
2024-05-07 07:20;47;287
2024-05-07 07:30;46;287
2024-05-07 07:40;45;287
2024-05-07 07:50;44;287
2024-05-07 08:00;43;287
2024-05-07 08:10;41;287
2024-05-07 08:20;40;287
2024-05-07 08:30;37;287
2024-05-07 08:40;34;286
2024-05-07 08:50;30;286
2024-05-07 09:00;25;286
2024-05-07 09:10;20;285
2024-05-07 09:20;14;284
2024-05-07 09:30;7;279
2024-05-07 09:40;1;178
2024-05-07 09:50;8;117
2024-05-07 10:00;14;113
2024-05-07 10:10;20;111
2024-05-07 10:20;24;110
2024-05-07 10:30;27;109
2024-05-07 10:40;30;109
2024-05-07 10:50;32;108
2024-05-07 11:00;34;108
2024-05-07 11:10;35;109
2024-05-07 11:20;35;109
2024-05-07 11:30;34;109
2024-05-07 11:40;34;108
2024-05-07 11:50;34;108
2024-05-07 12:00;34;108
2024-05-07 12:10;34;108
2024-05-07 12:20;35;108
2024-05-07 12:30;35;108
2024-05-07 12:40;36;108
2024-05-07 12:50;38;108
2024-05-07 13:00;41;108
2024-05-07 13:10;45;108
2024-05-07 13:20;51;108
2024-05-07 13:30;58;108
2024-05-07 13:40;66;108
2024-05-07 13:50;75;108
2024-05-07 14:00;83;108
2024-05-07 14:10;90;109
2024-05-07 14:20;95;109
2024-05-07 14:30;98;108
2024-05-07 14:40;96;109
2024-05-07 14:50;92;109
2024-05-07 15:00;84;108
2024-05-07 15:10;76;108
2024-05-07 15:20;66;108
2024-05-07 15:30;56;107
2024-05-07 15:40;45;106
2024-05-07 15:50;35;104
2024-05-07 16:00;26;101
2024-05-07 16:10;17;96
2024-05-07 16:20;9;80
2024-05-07 16:30;5;14
2024-05-07 16:40;11;318
2024-05-07 16:50;18;302
2024-05-07 17:00;27;288
2024-05-07 17:10;36;283
2024-05-07 17:20;44;287
2024-05-07 17:30;49;289
2024-05-07 17:40;52;288
2024-05-07 17:50;54;287
2024-05-07 18:00;56;288
2024-05-07 18:10;56;287
2024-05-07 18:20;56;287
2024-05-07 18:30;55;287
2024-05-07 18:40;53;287
2024-05-07 18:50;51;285
2024-05-07 19:00;49;285
2024-05-07 19:10;49;285
2024-05-07 19:20;48;285
2024-05-07 19:30;48;286
2024-05-07 19:40;48;286
2024-05-07 19:50;48;287
2024-05-07 20:00;47;287
2024-05-07 20:10;45;287
2024-05-07 20:20;44;286
2024-05-07 20:30;42;286
2024-05-07 20:40;40;286
2024-05-07 20:50;37;286
2024-05-07 21:00;33;286
2024-05-07 21:10;29;286
2024-05-07 21:20;23;285
2024-05-07 21:30;17;284
2024-05-07 21:40;10;280
2024-05-07 21:50;3;260
2024-05-07 22:00;4;129
2024-05-07 22:10;10;116
2024-05-07 22:20;16;113
2024-05-07 22:30;21;111
2024-05-07 22:40;24;110
2024-05-07 22:50;28;109
2024-05-07 23:00;30;109
2024-05-07 23:10;32;108
2024-05-07 23:20;34;109
2024-05-07 23:30;35;109
2024-05-07 23:40;35;109
2024-05-07 23:50;35;109
2024-05-08 00:00;34;109
2024-05-08 00:10;33;109
2024-05-08 00:20;33;108
2024-05-08 00:30;33;108
2024-05-08 00:40;32;108
2024-05-08 00:50;32;108
2024-05-08 01:00;32;108
2024-05-08 01:10;32;108
2024-05-08 01:20;34;108
2024-05-08 01:30;36;107
2024-05-08 01:40;39;107
2024-05-08 01:50;44;107
2024-05-08 02:00;50;107
2024-05-08 02:10;58;108
2024-05-08 02:20;66;108
2024-05-08 02:30;74;109
2024-05-08 02:40;80;109
2024-05-08 02:50;85;109
2024-05-08 03:00;86;109
2024-05-08 03:10;85;108
2024-05-08 03:20;79;109
2024-05-08 03:30;71;108
2024-05-08 03:40;61;108
2024-05-08 03:50;51;107
2024-05-08 04:00;40;106
2024-05-08 04:10;30;104
2024-05-08 04:20;20;100
2024-05-08 04:30;12;93
2024-05-08 04:40;5;56
2024-05-08 04:50;7;321
2024-05-08 05:00;16;303
2024-05-08 05:10;25;293
2024-05-08 05:20;34;287
2024-05-08 05:30;43;286
2024-05-08 05:40;50;289
2024-05-08 05:50;53;288
2024-05-08 06:00;55;287
2024-05-08 06:10;56;288
2024-05-08 06:20;57;287
2024-05-08 06:30;57;287
2024-05-08 06:40;55;287
2024-05-08 06:50;53;287
2024-05-08 07:00;51;286
2024-05-08 07:10;50;286
2024-05-08 07:20;50;286
2024-05-08 07:30;50;286
2024-05-08 07:40;50;286
2024-05-08 07:50;50;286
2024-05-08 08:00;50;287
2024-05-08 08:10;49;287
2024-05-08 08:20;48;287
2024-05-08 08:30;46;287
2024-05-08 08:40;45;286
2024-05-08 08:50;43;286
2024-05-08 09:00;41;287
2024-05-08 09:10;38;286
2024-05-08 09:20;35;286
2024-05-08 09:30;31;286
2024-05-08 09:40;26;286
2024-05-08 09:50;21;285
2024-05-08 10:00;15;284
2024-05-08 10:10;8;279
2024-05-08 10:20;2;236
2024-05-08 10:30;6;122
2024-05-08 10:40;11;114
2024-05-08 10:50;16;112
2024-05-08 11:00;20;111
2024-05-08 11:10;23;110
2024-05-08 11:20;26;109
2024-05-08 11:30;28;109
2024-05-08 11:40;30;109
2024-05-08 11:50;32;108
2024-05-08 12:00;33;109
2024-05-08 12:10;33;109
2024-05-08 12:20;33;109
2024-05-08 12:30;32;108
2024-05-08 12:40;32;108
2024-05-08 12:50;32;108
2024-05-08 13:00;32;108
2024-05-08 13:10;32;108
2024-05-08 13:20;33;108
2024-05-08 13:30;34;108
2024-05-08 13:40;36;108
2024-05-08 13:50;39;108
2024-05-08 14:00;43;108
2024-05-08 14:10;48;108
2024-05-08 14:20;56;108
2024-05-08 14:30;64;108
2024-05-08 14:40;74;108
2024-05-08 14:50;83;108
2024-05-08 15:00;90;109
2024-05-08 15:10;94;109
2024-05-08 15:20;97;108
2024-05-08 15:30;97;108
2024-05-08 15:40;92;108
2024-05-08 15:50;85;108
2024-05-08 16:00;77;108
2024-05-08 16:10;67;107
2024-05-08 16:20;55;107
2024-05-08 16:30;45;106
2024-05-08 16:40;34;104
2024-05-08 16:50;24;100
2024-05-08 17:00;14;92
2024-05-08 17:10;6;59
2024-05-08 17:20;7;333
2024-05-08 17:30;15;308
2024-05-08 17:40;23;294
2024-05-08 17:50;33;284
2024-05-08 18:00;42;286
2024-05-08 18:10;49;289
2024-05-08 18:20;52;288
2024-05-08 18:30;54;287
2024-05-08 18:40;55;288
2024-05-08 18:50;56;287
2024-05-08 19:00;56;287
2024-05-08 19:10;55;287
2024-05-08 19:20;52;287
2024-05-08 19:30;50;286
2024-05-08 19:40;49;285
2024-05-08 19:50;49;286
2024-05-08 20:00;49;285
2024-05-08 20:10;49;286
2024-05-08 20:20;49;286
2024-05-08 20:30;48;287
2024-05-08 20:40;47;287
2024-05-08 20:50;46;287
2024-05-08 21:00;45;287
2024-05-08 21:10;43;286
2024-05-08 21:20;41;286
2024-05-08 21:30;38;286
2024-05-08 21:40;35;286
2024-05-08 21:50;31;286
2024-05-08 22:00;25;286
2024-05-08 22:10;20;285
2024-05-08 22:20;13;283
2024-05-08 22:30;6;276
2024-05-08 22:40;2;171
2024-05-08 22:50;7;119
2024-05-08 23:00;13;114
2024-05-08 23:10;18;112
2024-05-08 23:20;22;110
2024-05-08 23:30;25;110
2024-05-08 23:40;28;109
2024-05-08 23:50;30;108
2024-05-09 00:00;32;108
2024-05-09 00:10;33;109
2024-05-09 00:20;34;109
2024-05-09 00:30;34;109
2024-05-09 00:40;34;109
2024-05-09 00:50;33;108
2024-05-09 01:00;32;108
2024-05-09 01:10;32;108
2024-05-09 01:20;32;108
2024-05-09 01:30;33;108
2024-05-09 01:40;33;108
2024-05-09 01:50;34;108
2024-05-09 02:00;36;108
2024-05-09 02:10;;
2024-05-09 02:20;;
2024-05-09 02:30;;
2024-05-09 02:40;;
2024-05-09 02:50;;
2024-05-09 03:00;;
2024-05-09 03:10;;
2024-05-09 03:20;;
2024-05-09 03:30;;
2024-05-09 03:40;;
2024-05-09 03:50;;
2024-05-09 04:00;;
2024-05-09 04:10;;
2024-05-09 04:20;;
2024-05-09 04:30;;
2024-05-09 04:40;;
2024-05-09 04:50;;
2024-05-09 05:00;;
2024-05-09 05:10;;
2024-05-09 05:20;;
2024-05-09 05:30;;
2024-05-09 05:40;;
2024-05-09 05:50;;
2024-05-09 06:00;;
2024-05-09 06:10;;
2024-05-09 06:20;;
2024-05-09 06:30;;
2024-05-09 06:40;;
2024-05-09 06:50;;
2024-05-09 07:00;;
2024-05-09 07:10;;
2024-05-09 07:20;;
2024-05-09 07:30;;
2024-05-09 07:40;;
2024-05-09 07:50;;
2024-05-09 08:00;;
2024-05-09 08:10;;
2024-05-09 08:20;;
2024-05-09 08:30;;
2024-05-09 08:40;;
2024-05-09 08:50;;
2024-05-09 09:00;;
2024-05-09 09:10;;
2024-05-09 09:20;;
2024-05-09 09:30;;
2024-05-09 09:40;;
2024-05-09 09:50;;
2024-05-09 10:00;;
2024-05-09 10:10;;
2024-05-09 10:20;;
2024-05-09 10:30;;
2024-05-09 10:40;;
2024-05-09 10:50;;
2024-05-09 11:00;;
2024-05-09 11:10;;
2024-05-09 11:20;;
2024-05-09 11:30;;
2024-05-09 11:40;;
2024-05-09 11:50;;
2024-05-09 12:00;;
2024-05-09 12:10;;
2024-05-09 12:20;;
2024-05-09 12:30;;
2024-05-09 12:40;;
2024-05-09 12:50;;
2024-05-09 13:00;;
2024-05-09 13:10;;
2024-05-09 13:20;;
2024-05-09 13:30;;
2024-05-09 13:40;;
2024-05-09 13:50;;
2024-05-09 14:00;;
2024-05-09 14:10;;
2024-05-09 14:20;;
2024-05-09 14:30;;
2024-05-09 14:40;;
2024-05-09 14:50;;
2024-05-09 15:00;;
2024-05-09 15:10;;
2024-05-09 15:20;;
2024-05-09 15:30;;
2024-05-09 15:40;;
2024-05-09 15:50;;
2024-05-09 16:00;;
2024-05-09 16:10;;
2024-05-09 16:20;;
2024-05-09 16:30;;
2024-05-09 16:40;;
2024-05-09 16:50;;
2024-05-09 17:00;;
2024-05-09 17:10;;
2024-05-09 17:20;;
2024-05-09 17:30;;
2024-05-09 17:40;;
2024-05-09 17:50;;
2024-05-09 18:00;;
2024-05-09 18:10;;
2024-05-09 18:20;;
2024-05-09 18:30;;
2024-05-09 18:40;;
2024-05-09 18:50;;
2024-05-09 19:00;;
2024-05-09 19:10;;
2024-05-09 19:20;;
2024-05-09 19:30;;
2024-05-09 19:40;;
2024-05-09 19:50;;
2024-05-09 20:00;;
2024-05-09 20:10;;
2024-05-09 20:20;;
2024-05-09 20:30;;
2024-05-09 20:40;;
2024-05-09 20:50;;
2024-05-09 21:00;;
2024-05-09 21:10;;
2024-05-09 21:20;;
2024-05-09 21:30;;
2024-05-09 21:40;;
2024-05-09 21:50;;
2024-05-09 22:00;;
2024-05-09 22:10;;
2024-05-09 22:20;;
2024-05-09 22:30;;
2024-05-09 22:40;;
2024-05-09 22:50;;
2024-05-09 23:00;;
2024-05-09 23:10;;
2024-05-09 23:20;;
2024-05-09 23:30;;
2024-05-09 23:40;;
2024-05-09 23:50;;
2024-05-10 00:00;;
2024-05-10 00:10;;
2024-05-10 00:20;;
2024-05-10 00:30;;
2024-05-10 00:40;;
2024-05-10 00:50;;
2024-05-10 01:00;;
2024-05-10 01:10;;
2024-05-10 01:20;;
2024-05-10 01:30;;
2024-05-10 01:40;;
2024-05-10 01:50;;
2024-05-10 02:00;;
2024-05-10 02:10;;
2024-05-10 02:20;;
2024-05-10 02:30;;
2024-05-10 02:40;;
2024-05-10 02:50;;
2024-05-10 03:00;;
2024-05-10 03:10;;
2024-05-10 03:20;;
2024-05-10 03:30;;
2024-05-10 03:40;;
2024-05-10 03:50;;
2024-05-10 04:00;;
2024-05-10 04:10;;
2024-05-10 04:20;;
2024-05-10 04:30;;
2024-05-10 04:40;;
2024-05-10 04:50;;
2024-05-10 05:00;;
2024-05-10 05:10;;
2024-05-10 05:20;;
2024-05-10 05:30;;
2024-05-10 05:40;;
2024-05-10 05:50;;
2024-05-10 06:00;;
2024-05-10 06:10;;
2024-05-10 06:20;;
2024-05-10 06:30;;
2024-05-10 06:40;;
2024-05-10 06:50;;
2024-05-10 07:00;;
2024-05-10 07:10;;
2024-05-10 07:20;;
2024-05-10 07:30;;
2024-05-10 07:40;;
2024-05-10 07:50;;
2024-05-10 08:00;;
2024-05-10 08:10;;
2024-05-10 08:20;;
2024-05-10 08:30;;
2024-05-10 08:40;;
2024-05-10 08:50;;
2024-05-10 09:00;;
2024-05-10 09:10;;
2024-05-10 09:20;;
2024-05-10 09:30;;
2024-05-10 09:40;;
2024-05-10 09:50;;
2024-05-10 10:00;;
2024-05-10 10:10;;
2024-05-10 10:20;;
2024-05-10 10:30;;
2024-05-10 10:40;;
2024-05-10 10:50;;
2024-05-10 11:00;;
2024-05-10 11:10;;
2024-05-10 11:20;;
2024-05-10 11:30;;
2024-05-10 11:40;;
2024-05-10 11:50;;
2024-05-10 12:00;;
2024-05-10 12:10;;
2024-05-10 12:20;;
2024-05-10 12:30;;
2024-05-10 12:40;;
2024-05-10 12:50;;
2024-05-10 13:00;;
  </body>
</html>
